Change the Weather History Date:

Sunday, January 6, 2013

  Actual Average Record
Temperature  
Mean Temperature 73 °F 66 °F  
Max Temperature 83 °F 74 °F 87 °F (1990)
Min Temperature 63 °F 57 °F 34 °F (2010)
Degree Days  
Heating Degree Days 0 3  
Month to date heating degree days 0 18  
Since 1 July heating degree days 43 89  
Cooling Degree Days 8 4  
Month to date cooling degree days 42 24  
Year to date cooling degree days 42 24  
Growing Degree Days 22 (Base 50)    
Moisture  
Dew Point 67 °F    
Average Humidity 79    
Maximum Humidity 100    
Minimum Humidity 58    
Precipitation  
Precipitation 0.00 in 0.11 in 1.12 in (1941)
Month to date precipitation T 0.66  
Year to date precipitation T 0.66  
Snow  
Snow 0.00 in - - ()
Month to date snowfall 0.0  
Since 1 July snowfall 0.0  
Snow Depth 0.00 in    
Sea Level Pressure  
Sea Level Pressure 30.12 in    
Wind  
Wind Speed 6 mph (SSE)    
Max Wind Speed 18 mph    
Max Gust Speed 23 mph    
Visibility 9 miles    
Events      
T = Trace of Precipitation, MM = Missing Value Source: NWS Daily Summary

Daily Weather History Graph

Daily Weather History Graph

Search for Another Location

Airport or City:

Trip Planner

Search our weather history database for the weather conditions in past years. The results will help you decide how hot, cold, wet, or windy it might be!

Date:

Astronomy

Jan. 06, 2013 Rise Set
Actual Time 7:10 AM EST 5:42 PM EST
Civil Twilight 6:44 AM EST 6:08 PM EST
Nautical Twilight 6:16 AM EST 6:36 PM EST
Astronomical Twilight 5:47 AM EST 7:05 PM EST
Moon 1:35 AM EST (1/6) 12:59 PM EST (1/6)
Length of Visible Light 11h 23m
Length of Day
10h 32m
Waning Crescent, 33% of the Moon is Illuminated
Jan 6
Waning Crescent
Jan 11
New
Jan 18
First Quarter
Jan 26
Full
Feb 3
Last Quarter

Hourly Weather History & Observations

Time (EST) Temp. Heat Index Dew Point Humidity Pressure Visibility Wind Dir Wind Speed Gust Speed Precip Events Conditions
12:53 AM 66.0 °F - 64.0 °F 93% 30.18 in 3.0 mi Calm Calm - N/A   Scattered Clouds
1:53 AM 66.0 °F - 64.0 °F 93% 30.16 in 3.0 mi Calm Calm - N/A   Partly Cloudy
2:53 AM 64.0 °F - 63.0 °F 96% 30.14 in 3.0 mi Calm Calm - N/A   Scattered Clouds
3:53 AM 66.0 °F - 64.0 °F 93% 30.13 in 10.0 mi Calm Calm - N/A   Scattered Clouds
4:53 AM 64.9 °F - 64.0 °F 97% 30.12 in 10.0 mi Calm Calm - N/A   Mostly Cloudy
5:53 AM 66.0 °F - 64.9 °F 96% 30.13 in 10.0 mi Calm Calm - N/A   Scattered Clouds
6:53 AM 66.9 °F - 64.9 °F 93% 30.13 in 10.0 mi Calm Calm - N/A   Mostly Cloudy
7:07 AM 66.2 °F - 64.4 °F 94% 30.14 in 10.0 mi Calm Calm - N/A   Mostly Cloudy
7:53 AM 68.0 °F - 66.0 °F 93% 30.16 in 10.0 mi Calm Calm - N/A   Mostly Cloudy
8:53 AM 72.0 °F - 70.0 °F 93% 30.16 in 10.0 mi Calm Calm - N/A   Mostly Cloudy
9:12 AM 75.2 °F - 69.8 °F 83% 30.17 in 10.0 mi Calm Calm - N/A   Mostly Cloudy
9:53 AM 79.0 °F - 70.0 °F 74% 30.17 in 10.0 mi SSE 11.5 mph - N/A   Mostly Cloudy
10:53 AM 80.1 °F 82.7 °F 68.0 °F 67% 30.15 in 10.0 mi SSE 15.0 mph - N/A   Scattered Clouds
11:53 AM 81.0 °F 83.8 °F 68.0 °F 65% 30.13 in 10.0 mi SSE 13.8 mph 20.7 mph N/A   Scattered Clouds
12:53 PM 81.0 °F 83.8 °F 68.0 °F 65% 30.10 in 10.0 mi SSE 15.0 mph - N/A   Scattered Clouds
1:53 PM 82.0 °F 84.5 °F 66.9 °F 60% 30.08 in 10.0 mi SSE 11.5 mph - N/A   Scattered Clouds
2:53 PM 81.0 °F 83.8 °F 68.0 °F 65% 30.07 in 10.0 mi SSE 12.7 mph - N/A   Scattered Clouds
3:53 PM 79.0 °F - 68.0 °F 69% 30.06 in 10.0 mi SSE 13.8 mph - N/A   Mostly Cloudy
4:53 PM 78.1 °F - 69.1 °F 74% 30.06 in 10.0 mi SSE 13.8 mph 19.6 mph N/A   Mostly Cloudy
5:53 PM 75.9 °F - 69.1 °F 79% 30.07 in 10.0 mi SSE 9.2 mph - N/A   Mostly Cloudy
6:53 PM 75.9 °F - 69.1 °F 79% 30.09 in 10.0 mi South 4.6 mph - N/A   Mostly Cloudy
7:53 PM 75.0 °F - 69.1 °F 82% 30.10 in 10.0 mi South 3.5 mph - N/A   Mostly Cloudy
8:53 PM 73.0 °F - 68.0 °F 84% 30.11 in 10.0 mi South 3.5 mph - N/A   Mostly Cloudy
9:53 PM 73.0 °F - 68.0 °F 84% 30.12 in 10.0 mi Calm Calm - N/A   Mostly Cloudy
10:53 PM 72.0 °F - 68.0 °F 87% 30.12 in 10.0 mi SW 3.5 mph - N/A   Mostly Cloudy
11:53 PM 72.0 °F - 68.0 °F 87% 30.12 in 10.0 mi West 4.6 mph - N/A   Mostly Cloudy